Regional Weather Roundup
Issued by NWS

Home | Current Version | Previous Version | Text Only | Print | Product List | Glossary On
Versions: 1 2 3 4 5 6 7 8 9 10 11 12 13 14 15 16 17 18 19 20 21 22 23 24 25 26 27 28 29 30 31 32 33 34 35 36 37 38 39 40 41 42 43 44 45 46 47 48 49 50
000
ASUS43 KFSD 201410
RWRSD

WEATHER ROUNDUP FOR SOUTH DAKOTA
NATIONAL WEATHER SERVICE SIOUX FALLS SD
900 AM CDT SUN APR 20 2014

NOTE: "FAIR" INDICATES FEW OR NO CLOUDS BELOW 12,000 FEET WITH NO
SIGNIFICANT WEATHER AND/OR OBSTRUCTIONS TO VISIBILITY.


SDZ001>005-009-010-012>017-201500-
NORTHWEST AND NORTH CENTRAL SOUTH DAKOTA

CITY           SKY/WX    TMP DP  RH WIND       PRES   REMARKS
BUFFALO          N/A     48  30  49 S8        29.85S
FAITH            N/A     51  30  44 S16       29.92F
MOBRIDGE       SUNNY     47  36  65 SE9       29.95S
$$

SDZ012>016-024>037-041>051-057-063-072>074-201500-
SOUTHWEST AND SOUTH CENTRAL SOUTH DAKOTA

CITY           SKY/WX    TMP DP  RH WIND       PRES   REMARKS
RAPID CTY ARPT SUNNY     48  33  56 SE5       29.91S
PIERRE         SUNNY     50  29  44 E8        29.96S
CUSTER         SUNNY     54  37  52 CALM      29.98S
ELLSWORTH AFB  SUNNY     49  33  54 S1        29.91S
PHILIP         SUNNY     56  33  42 SE7       29.94S
PINE RIDGE     SUNNY     55  41  59 SW13      29.95R
SPEARFISH      FAIR      52  37  58 W5        29.94S
WINNER         FAIR      60  30  32 SE12      29.98S
$$

SDZ004>011-016>023-039-040-201500-
NORTHEAST SOUTH DAKOTA

CITY           SKY/WX    TMP DP  RH WIND       PRES   REMARKS
ABERDEEN       SUNNY     44  35  70 SW7       30.01S
WATERTOWN      SUNNY     51  37  58 E5        30.00F
SISSETON         N/A     50  38  63 S12       30.02F
$$

SDZ017-020-022-023-036>040-048>070-201500-
SOUTHEAST SOUTH DAKOTA

CITY           SKY/WX    TMP DP  RH WIND       PRES   REMARKS
SIOUX FALLS    MOSUNNY   58  40  51 N7        30.00S
HURON          SUNNY     53  32  44 SE5       30.00R
CHAMBERLAIN      N/A     50  34  54 SE5       29.99F
MITCHELL       SUNNY     50  33  52 CALM      30.01S
YANKTON        MOSUNNY   57  39  51 NE7       29.99S
$$

ABBREVIATIONS USED IN REMARKS
   TC - TEMPERATURE IN CELSIUS
  WCI - WIND CHILL INDEX
   HX - HEAT INDEX
  VSB - VISIBILITY




USA.gov is the U.S. government's official web portal to all federal, state and local government web resources and services.